Volver al catálogo

SL-14 R/B

ActivoPO
NORAD 18422·ROCKET BODY·🇷🇺 Russia

Lanzado Oct 20, 1987 desde Plesetsk Cosmodrome

Loading…

Próximos Pases (próximas 24 horas)

TLE

ActualizadoSource: Space-Track

Época: Sep 14, 2026, 11:01 UTC

1 18422U 87088B   26257.45939770  .00000291  00000-0  30763-4 0  9999
2 18422  82.5076 249.5905 0020208 105.5692 254.7757 14.85460037 81320

Sigue SL-14 R/B en tiempo real con AllMySat

Download on the App Store